RH
14 13 13 9 6 7 18 38 62 76 27 17 15 18 21 50 73 47 41 46 52 75 69 97 97 97 96 96 95 97 93 92 87 95 98 98 95 96 99 95 99 94 100
13 10 7 8 6 9 22 40 73 74 22 18 14 21 22 23 80 87 80 77 63 51 49 63 97 97 97 98 96 97 87 89 99 90 83 98 100 100 99 100 98 89 92
6 3 3 3 4 13 34 43 89 73 19 18 14 18 24 19 40 93 98 98 95 94 96 91 90 96 97 98 96 93 93 93 100 100 98 100 100 99 98 98 94 91 90
3 3 3 3 4 20 45 53 98 63 19 19 15 17 21 26 17 30 80 86 95 93 93 98 96 95 97 97 98 94 98 98 98 97 98 97 98 97 96 96 94 95 89
8 9 4 11 16 32 43 67 99 47 19 20 18 17 22 23 26 25 19 20 41 85 96 96 98 99 98 98 97 98 98 97 97 95 93 81 73 73 80 83 82 87 83
47 28 18 30 43 63 63 97 95 31 20 22 20 20 18 23 23 22 21 24 26 23 26 27 40 47 50 62 71 74 73 63 49 44 46 42 50 52 68 82 88 99 100
86 67 44 44 59 66 89 100 71 28 20 22 22 22 25 21 18 19 18 19 20 22 24 26 28 28 26 26 30 30 31 37 40 42 44 48 64 68 85 100 100 100 99
87 85 69 70 65 83 99 94 52 33 22 22 23 24 24 26 28 30 33 35 38 35 27 25 25 27 30 34 34 34 35 32 30 28 32 31 31 38 44 52 59 62 61
94 80 78 82 86 98 96 60 60 39 31 30 26 26 27 28 28 29 30 31 33 35 40 43 45 43 44 44 43 45 48 56 68 71 73 74 75 79 82 80 75 70 69
92 94 95 96 98 96 84 74 74 72 53 49 42 31 31 56 60 86 80 62 58 49 68 86 88 89 88 77 76 79 88 92 98 100 100 100 100 100 100 99 100 100 99
99 98 95 98 97 97 96 95 95 96 97 93 94 95 95 93 91 100 92 89 83 73 69 72 78 81 88 92 86 80 86 100 96 94 94 100 97 94 98 100 100 100 100
95 99 99 96 97 96 98 95 97 97 97 98 98 97 96 97 100 88 74 73 71 67 64 87 100 100 77 78 93 96 86 94 98 95 94 100 97 100 100 100 99 100 100
100 98 98 98 98 98 98 99 98 97 95 100 95 96 95 95 78 58 44 37 30 26 29 34 46 75 49 74 97 100 100 100 100 100 100 100 100 99 100 99 96 97 96
99 97 97 96 98 99 97 96 96 96 96 97 96 96 95 96 85 74 56 46 39 33 33 34 54 34 35 43 76 59 92 100 99 90 71 98 84 74 94 91 70 71 72
97 97 99 100 100 98 87 89 93 91 88 82 76 81 76 70 73 66 53 54 53 47 42 40 44 52 77 69 55 53 64 46 44 57 85 82 67 79 82 75 67 48 37
97 99 98 99 97 99 96 98 97 91 78 69 60 56 54 54 54 52 49 48 47 43 35 33 33 32 33 35 34 34 39 44 46 64 72 62 52 46 33 18 13 14 20
98 100 100 100 95 93 96 97 84 72 68 64 58 49 41 37 37 38 37 35 35 36 33 34 33 33 37 40 37 37 38 41 47 48 30 14 12 11 12 14 17 19 32
98 99 96 95 94 98 100 99 100 97 92 86 84 75 69 63 60 57 55 54 56 55 49 47 48 46 45 44 37 27 16 13 12 13 13 13 12 13 16 22 27 44 60
58 64 73 77 78 77 88 100 100 100 98 95 88 68 61 55 50 45 42 35 28 26 27 23 22 19 18 18 17 16 13 11 10 10 11 12 14 18 26 39 68 81 82
58 66 66 65 60 56 53 54 52 50 48 46 42 38 36 33 32 32 30 27 25 22 18 16 13 11 10 10 10 10 10 10 11 14 19 20 22 29 43 64 78 84 88
58 57 55 48 43 39 38 37 34 33 32 31 29 28 26 24 23 21 16 14 13 12 12 12 11 11 12 13 14 14 15 16 20 26 32 40 53 62 72 79 85 84 87
54 60 61 61 59 56 53 47 42 40 37 37 36 36 30 25 20 17 16 16 16 15 14 14 14 17 18 23 27 30 28 31 33 41 51 65 71 74 77 80 83 85 84
45 46 47 49 52 53 52 50 48 45 44 43 43 39 33 28 24 22 21 20 19 18 19 21 26 29 37 47 47 50 51 52 58 62 66 68 72 76 79 80 79 76 76
61 67 69 64 61 61 63 62 62 63 57 54 49 43 37 34 32 30 27 26 26 26 25 30 38 45 56 68 78 82 81 82 79 77 76 76 74 72 70 70 70 69 64
73 76 71 72 76 76 75 74 70 63 56 50 46 43 42 41 40 39 37 34 34 33 37 44 61 74 79 80 79 76 74 81 83 78 76 74 73 73 70 68 62 53 44
54 53 55 55 55 54 50 45 43 42 41 43 43 44 47 49 50 50 50 51 56 58 66 74 79 82 87 91 94 92 90 85 78 75 76 76 71 64 56 44 34 25 14
Wind_Speed
42 42 42 44 45 48 50 49 37 30 27 27 27 25 19 18 22 25 27 30 28 30 25 19 19 20 19 23 26 26 22 24 22 24 26 32 35 38 36 36 31 31 26
45 43 43 44 44 50 51 49 37 30 28 27 27 23 19 18 19 25 27 29 31 34 34 30 30 25 21 23 23 28 24 26 27 27 29 29 38 41 40 39 37 31 26
47 45 43 44 45 53 52 49 37 31 29 29 27 23 22 16 16 18 22 22 24 23 24 23 29 26 27 29 33 29 30 27 31 31 31 34 36 39 40 40 37 34 31
44 42 41 45 48 55 53 47 39 33 30 30 26 25 22 17 13 13 12 12 14 22 24 28 26 30 28 34 35 36 32 32 33 34 31 33 34 36 36 36 35 35 36
43 43 48 54 55 55 52 44 38 36 31 31 26 25 23 21 17 14 13 12 9 11 17 27 28 30 28 28 27 31 29 31 31 29 27 28 29 29 29 33 36 37 38
39 43 49 54 55 53 46 43 37 37 34 32 28 24 22 22 21 18 16 14 11 11 11 11 12 14 15 18 18 20 22 23 25 27 29 28 29 31 32 35 37 41 44
39 43 50 51 46 44 46 44 38 36 37 34 30 26 21 19 18 16 15 15 15 16 16 16 16 17 19 20 22 25 26 28 28 28 29 29 30 32 33 37 40 45 48
36 45 47 47 48 48 49 38 39 38 36 35 31 29 25 23 19 16 15 14 14 14 14 13 15 17 20 24 27 27 27 28 27 27 29 31 33 36 39 42 45 48 51
37 45 46 46 44 45 43 38 39 39 36 34 31 28 27 26 25 24 22 22 22 21 19 18 20 22 23 25 26 26 26 27 27 30 32 34 35 38 40 43 46 49 52
37 43 47 47 43 33 32 36 38 38 38 35 31 31 31 30 27 26 27 26 27 27 26 25 26 26 26 27 27 29 30 31 32 30 32 34 37 38 42 45 48 56 61
37 38 36 44 39 35 34 35 37 38 43 46 45 41 39 33 34 30 31 31 30 29 28 28 28 30 28 27 30 32 33 34 34 39 39 37 40 44 49 53 55 59 63
41 43 51 45 42 39 36 37 40 31 35 38 37 38 39 36 35 32 31 31 31 32 32 24 23 23 36 34 34 36 38 40 39 41 45 51 49 48 52 55 57 55 59
37 35 49 51 48 43 42 45 51 31 18 23 24 25 28 30 31 30 31 33 35 37 37 37 39 43 43 37 41 48 45 44 54 47 52 55 57 61 61 66 65 62 58
31 34 25 20 22 30 38 29 31 29 27 25 24 25 28 31 30 32 36 38 39 40 42 42 43 44 46 46 50 50 52 56 54 56 60 63 63 67 63 66 64 62 60
29 26 31 34 33 31 33 29 26 25 26 26 27 29 30 32 34 38 41 43 44 43 44 47 49 49 47 51 50 51 55 57 59 59 60 61 58 56 57 59 60 60 59
14 22 29 32 34 29 28 27 28 28 28 29 30 32 35 36 39 41 42 41 40 40 40 41 43 45 47 49 49 50 52 54 54 53 54 55 56 57 56 57 58 59 59
11 15 17 19 19 20 21 25 26 26 27 29 30 32 32 33 34 34 36 37 37 39 41 42 45 47 48 50 51 54 56 56 56 56 55 55 56 58 60 62 63 63 63
13 15 15 16 18 21 25 28 30 32 32 31 31 32 34 35 36 38 39 40 42 43 44 46 49 51 52 53 54 53 53 55 57 58 60 61 61 62 62 62 63 63 62
18 18 20 21 22 24 26 27 29 31 32 34 36 36 36 37 39 40 41 41 41 42 44 46 48 49 51 53 55 57 58 59 61 62 62 63 63 62 63 63 62 61 61
18 19 21 21 22 23 23 24 26 27 28 29 31 32 34 36 38 40 41 42 44 46 47 49 50 52 53 54 56 58 58 59 58 59 59 59 60 61 61 62 64 64 65
23 23 23 24 24 24 26 28 29 29 31 32 33 35 37 37 39 41 41 42 43 45 47 49 51 53 53 54 55 56 56 56 56 56 56 58 58 59 60 61 62 61 61
29 30 31 32 32 34 34 34 35 36 37 38 38 40 42 42 44 44 44 45 47 49 51 52 53 53 54 55 56 57 58 57 58 58 58 58 58 59 60 61 62 62 64
36 36 37 37 38 39 39 40 41 41 42 43 44 45 45 46 47 47 47 49 50 52 53 54 54 55 56 58 60 60 59 60 59 58 58 57 58 58 59 61 62 64 65
40 41 41 42 44 44 45 45 46 47 48 49 49 49 49 48 48 49 51 52 53 54 56 56 56 57 58 59 59 59 58 57 58 58 59 59 61 62 63 65 65 66 67
44 45 45 47 48 49 50 51 51 51 51 51 52 53 53 53 54 54 55 57 57 57 58 58 58 57 57 57 58 59 59 60 60 61 62 63 65 65 66 66 67 68 68
46 47 47 48 49 50 51 52 53 54 54 54 55 56 57 57 58 58 58 57 57 58 57 57 58 58 59 59 60 61 62 62 63 64 65 66 67 67 68 68 68 66 64
Wind_Direction
258 257 254 252 252 250 254 257 259 260 258 262 271 273 276 274 261 253 247 244 243 239 243 256 246 243 256 253 239 227 240 239 245 246 248 248 254 255 259 264 275 273 266
258 255 251 248 249 246 250 255 257 254 253 259 264 262 273 268 260 246 245 247 246 244 244 243 244 249 248 249 231 228 242 240 238 240 244 246 252 259 261 258 261 264 262
253 253 252 247 243 241 244 250 253 250 246 255 259 254 261 267 267 254 245 251 242 236 242 231 236 241 251 243 239 244 257 244 236 241 254 259 255 257 258 256 259 259 259
261 258 250 236 237 237 239 245 247 244 239 251 255 254 253 257 263 261 256 260 252 232 224 238 243 236 246 244 245 250 251 239 247 258 261 261 259 256 256 259 260 260 260
252 241 230 226 228 232 236 239 240 238 235 246 248 252 252 252 247 244 245 245 256 251 240 234 242 242 252 255 262 253 244 251 261 266 263 261 261 259 259 261 263 263 265
231 229 226 226 226 228 231 235 233 233 232 237 240 243 244 243 245 243 242 241 237 233 232 232 233 240 246 246 253 257 253 254 257 260 261 262 260 260 259 261 262 265 266
233 226 225 227 224 228 232 225 225 228 231 234 235 237 238 239 243 250 249 249 245 242 238 235 238 245 247 247 244 250 253 254 256 259 262 266 270 273 272 271 273 273 275
225 223 220 219 221 229 219 213 221 227 231 234 235 237 239 241 241 242 252 259 261 261 257 251 252 256 258 258 257 258 260 264 269 274 277 277 275 274 274 273 272 272 272
218 221 222 224 226 224 210 213 222 227 232 234 236 239 241 244 244 245 246 250 254 255 259 263 265 265 267 268 268 271 273 275 277 274 271 271 272 273 274 275 274 275 275
219 227 229 232 222 218 216 223 227 231 234 233 231 238 238 246 251 256 254 252 255 255 255 252 252 250 255 260 265 268 270 272 275 281 282 285 283 285 289 289 290 286 283
221 226 224 217 228 228 223 226 232 240 244 230 230 234 243 240 249 256 258 255 256 256 258 262 267 269 272 278 280 280 284 285 274 281 281 284 284 283 287 286 284 286 284
212 225 218 227 218 236 232 236 242 250 254 245 246 242 242 240 251 256 256 258 260 264 268 266 267 260 277 272 272 274 275 278 275 282 284 277 277 277 280 283 278 279 283
215 209 217 221 229 217 235 231 244 238 236 233 231 232 234 238 242 249 259 265 268 270 267 265 261 260 268 273 270 265 268 275 276 273 271 279 276 278 276 277 280 286 286
180 199 183 186 193 206 223 222 223 231 242 246 244 250 252 247 253 260 259 262 264 264 267 269 270 269 268 262 263 268 263 264 271 274 272 278 286 285 283 282 285 283 283
181 192 186 194 203 209 222 223 221 225 234 241 245 248 252 253 255 256 258 258 261 265 267 269 270 272 271 273 273 272 271 274 279 282 280 279 282 281 281 283 283 283 283
217 224 220 215 214 207 211 216 222 228 234 240 245 249 249 252 255 257 258 259 262 263 266 269 272 274 276 277 279 280 279 277 278 279 278 278 281 283 284 284 285 286 287
216 222 231 236 241 242 224 226 229 235 239 244 247 249 249 250 252 255 258 260 262 265 270 273 275 276 277 278 280 280 280 280 280 281 283 285 285 287 288 287 287 287 286
253 249 247 246 251 250 243 239 238 240 243 246 250 252 256 258 260 263 265 266 269 271 273 275 275 276 276 278 279 279 280 282 283 284 285 285 285 285 285 286 286 286 286
257 254 252 251 251 252 251 250 250 251 253 253 255 258 259 261 263 265 266 268 270 272 273 274 275 276 278 279 281 282 282 283 283 283 285 286 287 287 287 287 287 288 290
265 261 258 257 255 256 257 257 257 257 258 260 261 262 263 263 264 266 269 272 274 274 277 278 279 280 280 280 282 283 283 284 284 286 287 287 287 287 288 288 288 289 290
260 263 264 263 263 262 261 261 261 262 264 265 266 267 269 272 273 274 276 278 279 280 280 281 281 282 284 285 285 285 286 286 286 286 287 287 287 287 288 289 289 290 290
266 266 264 264 266 265 266 268 269 269 270 273 276 278 278 278 278 278 278 280 282 283 282 283 283 285 286 285 284 285 286 286 286 285 285 286 287 288 289 290 290 291 291
267 266 266 267 267 268 270 271 272 274 275 277 279 280 280 279 280 281 281 282 282 283 282 282 283 284 283 283 284 284 284 285 284 285 285 287 287 288 288 289 290 290 291
271 271 272 272 272 271 270 271 272 273 274 275 277 278 278 279 279 280 280 281 281 282 283 283 283 284 284 284 284 284 284 284 284 285 286 287 287 288 288 289 290 291 292
266 267 268 269 269 270 270 271 272 273 274 275 277 278 279 280 280 280 280 279 280 281 281 283 283 284 284 284 284 283 284 284 285 286 286 287 287 289 289 291 292 293 294
269 268 268 267 268 269 270 271 272 273 274 275 276 276 276 277 277 278 278 279 280 281 281 282 282 282 282 283 283 283 284 285 286 286 287 289 290 291 292 293 294 294 294